Regional Weather Roundup
Issued by NWS Charleston, WV

Home | Current Version | Previous Version | Graphics & Text | Print | Product List | Glossary On
Versions: 1 2 3 4 5 6 7 8 9 10 11 12 13 14 15 16 17 18 19 20 21 22 23 24 25 26 27 28
000
ASUS41 KRLX 211610
RWRRLX
West Virginia Regional Weather Roundup
National Weather Service Charleston WV
1200 PM EDT SAT APR 21 2018

Note: "fair" indicates few or no clouds below 12,000 feet with no
significant weather and/or obstructions to visibility.

WVZ003-211700-
Northern Panhandle of West Virginia

CITY           SKY/WX    TMP DP  RH WIND       PRES   REMARKS
WHEELING       FAIR      49  26  41 NE7       30.43F
$$

WVZ009-211700-
Northwest West Virginia

CITY           SKY/WX    TMP DP  RH WIND       PRES   REMARKS
PARKERSBURG    FAIR      55  18  23 CALM      30.45F
$$

WVZ006-211700-
Western West Virginia

CITY           SKY/WX    TMP DP  RH WIND       PRES   REMARKS
HUNTINGTON     FAIR      59  23  25 NE8       30.39F
$$

WVZ015-211700-
West Central West Virginia

CITY           SKY/WX    TMP DP  RH WIND       PRES   REMARKS
CHARLESTON     FAIR      60  27  28 NW6       30.39F
$$

WVZ022-031-211700-
North Central West Virginia

CITY           SKY/WX    TMP DP  RH WIND       PRES   REMARKS
CLARKSBURG     FAIR      55  23  28 CALM      30.42F
MORGANTOWN     FAIR      52  22  30 CALM      30.43F
$$

WVZ025-035-042-045-211700-
Southern West Virginia

CITY           SKY/WX    TMP DP  RH WIND       PRES   REMARKS
BECKLEY        FAIR      54  25  32 E5        30.38F
LOGAN          FAIR      59  23  25 CALM      30.36F
BLUEFIELD      FAIR      53  21  28 CALM      30.39F
LEWISBURG      FAIR      53  26  35 W5        30.40F
$$

WVZ047-211700-
Northern Mountains of West Virginia

CITY           SKY/WX    TMP DP  RH WIND       PRES   REMARKS
ELKINS         FAIR      54  20  26 VRB5      30.39F
$$

WVZ052-211700-
Eastern Panhandle of West Virginia

CITY           SKY/WX    TMP DP  RH WIND       PRES   REMARKS
MARTINSBURG    FAIR      53  26  35 VRB3      30.44F
PETERSBURG     FAIR      52  26  37 CALM      30.42F
$$




USA.gov is the U.S. government's official web portal to all federal, state and local government web resources and services.